{"data":{"norad_id":62121,"epoch":"2026-09-21T22:10:07.906368Z","epoch_age_seconds":58545,"freshness":"FRESH","line1":"1 62121U 24222H   26264.92370262  .00019703  00000+0  72311-3 0  9991","line2":"2 62121  42.9992 107.6797 0000740 273.5027  86.5740 15.27601878102775","mean_motion":15.27601878,"eccentricity":7.4e-5,"inclination_deg":42.9992,"raan_deg":107.6797,"arg_perigee_deg":273.5027,"mean_anomaly_deg":86.574,"bstar":0.00072311,"rev_number":10277,"period_min":94.265398644659,"perigee_km":482.47586329556,"apogee_km":483.49130914232,"semimajor_km":6861.1205862189,"source":"CELESTRAK","updated_at":"2026-09-22T09:00:49.525073Z"}}